Showing default

JILIN-01-05, 43023

Orbit data source: Space-Track

JILIN-01-05, 43023 is a payload satellite owned by Changguang WJ (CN) in SSO that was launched on Tue, 21 Nov 2017 UTC via a CHANG ZHENG 6 launch vehicle from the Taiyaun Space Center, China (TSC). Payload-class satellites include a variety of spacecraft equipped with specific instruments for various scientific and technological missions. These include communications satellites like Starlink; space stations such as the ISS; scientific satellites like the Hubble; Earth observation satellites from companies like Planet Labs, Umbra, and HawkEye 360; GPS; miniature CubeSats for education and research; and military/defense satellites.

Loading next visibility...
Identifier
43023, 2017-074B
Orbit
SSO
Last TLE update
12 hours ago
Origin
Manufacturer
HARB/CIOMP
Mission
Operational Commercial Imaging
Bus & Motor
JL-1, Unknown motor
Mass
95 kg wet, 95 kg dry
Launch date (UTC)
2017-11-21 (8 years ago)
Launch vehicle
CHANG ZHENG 6
Launch site
Taiyaun Space Center, China (TSC)
Object type
Payload
Rocket body
Debris
Shape & HBR
Box + 2 Pan, 1.5 m
Radar Cross Section
2.000 m², Medium (>0.1 m² and < 1m²)

Expand to show TLE details & history

TLE from 12 hours ago
0 JILIN-01-05
1 43023U 17074B   25175.17734121  .00003372  00000-0  12413-3 0  9996
2 43023  97.4823 273.2212 0007090  66.6281 293.5703 15.28544609419222
Epoch: 2025-06-24T04:15Z
TLE epoch observation values (Epoch: 2025-06-24T04:15:22.28Z)
Latitude
-0.0001°
Longitude
-63.19863°
Altitude
481.32 km
Speed
7.626 km/s
True Right ascension
18h 12m 53s
True Declination
0° 00' 00"
Sunlit
Object was in full shadow at epoch
Visualization orbit readout
Latitude
-76.38495°
Longitude
-30.05209°
Altitude
511.587 km
Speed
7.605 km/s
Apparent Right ascension
16h 44m 09s
Apparent Declination
-62° 18' 52"
Sunlit
Object is in full shadow
Visualization observer readout
Local Sidereal Time
03:40:46
Azimuth
197.919° SSW
Elevation
-65.646°
Doppler factor
1
Orbital elements
Apogee altitude
481.98 km
Perigee altitude
472.26 km
Semi-major axis
6,855.257 km
Eccentricity
0.00071
Inclination
97.4823°
RAAN
273.2212°
Arg. of periapsis
66.6281°
True anomaly
Unknown
Mean anomaly
293.5703°
Eccentric anomaly
Unknown
Mean motion
3.82391 °/min
Orbital period
94.14 mins
BSTAR
0.00012413
Loading maneuver chart data...
Loading SW <> Apogee altitude chart data...
Loading historical data...
Loading historical data...
Loading historical data...
Loading historical data...
Loading historical data...
Loading historical data...
Loading historical data...
Other satellites on launch #74 in the year 2017 (2017-11-21 UTC)

JILIN-01-05 Visibility forecast

Observer location: undefined°, undefined°

Span
Click to sort rows by Start time (UTC) header in descending order
Start Az.
Max El. time (UTC)
Max El. Az.
Max El.
End time (UTC)
End Az.
5 mins2025-06-24 18:57:55.556Z35.267° NE2025-06-24 19:00:55.556Z114.237° SE29.45°2025-06-24 19:02:55.556Z158.965° S
4 mins2025-06-25 07:06:55.556Z222.162° SW2025-06-25 07:07:55.556Z252.947° W28.18°2025-06-25 07:10:55.556Z324.498° NNW
|